GSAT0222 (GALILEO 26) (43565 NORAD) Tracking and Keplerian Element Data

This shows tracking and keplerian element data for the satellite.

Feedback or suggestion? Click here.




ElementValue
Catalog43565
NameGSAT0222 (GALILEO 26)
Epoch Orbit665
Epoch Day228.78155899
Epoch Year2019
RAAN49.4312
Inclination56.608
Eccentricity0.0002076
Argument of Perigee275.8842
Mean Anonmoly84.1352
Mean Motion1.70476119
Decay Rate-5E-07
L11 43565U 18060B 19228.78155899 -.00000050 00000-0 00000+0 0 9997
L22 43565 56.6080 49.4312 0002076 275.8842 84.1352 1.70476119 6650

Live tracking and technical data element details for GSAT0222 (GALILEO 26) (NORAD 43565). GSAT0222 (GALILEO 26) can be tracked NOW for your location showing map with azimuth and elevation plus other details from your city location.

Track the satellite on the map from your city or location and see movement details for azimuth, elevation, latitude, longitude, range, height, and movement on the map or in text.







IsCatalogInMostPopularTable: catalog: 43565, numindb: 202
Update: records affected: 1



GetName: 43565 GSAT0222 (GALILEO 26)

Hit Count: updated at: Tue, 20 Aug 2019 18:07:00 GMT